Wind_Speed
13 13 14 14 14 14 14 14 13 13 13 13 13 13 13 13 12 12 12 12 12 12 12 11 11 10 10 9 9 8 8 7 7 6 6 6 5 4 4 4 3 3 4
16 15 15 15 15 15 15 15 15 15 14 14 14 14 14 14 14 13 14 14 13 13 13 12 12 12 11 11 10 10 9 9 8 8 8 7 7 6 5 5 5 4 4
17 17 17 16 16 16 16 17 17 16 16 16 16 16 16 16 16 16 15 15 15 14 14 14 13 13 12 12 11 11 11 10 10 9 9 9 9 8 8 7 6 6 6
18 18 18 18 17 17 17 18 18 18 17 17 17 17 17 17 17 17 17 16 15 15 15 15 15 15 14 14 13 13 12 12 12 11 10 10 11 10 10 9 8 8 8
18 18 19 19 19 19 19 19 19 19 19 19 19 18 18 18 18 18 18 17 17 16 17 16 16 16 16 15 15 14 14 14 14 13 12 12 12 12 11 11 11 10 10
19 19 20 20 20 20 20 21 21 21 21 21 21 20 20 19 19 19 19 19 18 18 18 17 17 17 17 16 16 16 15 15 15 15 14 13 13 14 13 13 12 12 11
21 21 21 21 22 22 21 22 22 22 22 22 22 22 21 21 21 21 21 20 20 20 20 19 19 19 18 18 18 17 16 16 16 16 16 15 15 14 15 15 14 14 13
23 23 23 23 23 23 23 23 23 23 23 23 23 23 23 23 23 23 23 22 22 22 22 21 21 19 19 19 19 19 19 18 18 17 17 16 16 16 16 15 15 15 15
24 24 24 24 24 25 25 24 24 24 24 24 24 24 24 24 24 24 24 24 23 23 23 23 22 22 21 21 21 20 20 20 19 19 18 18 18 18 17 17 16 16 16
25 25 25 26 26 26 26 27 26 26 26 26 26 26 26 25 26 26 26 26 25 25 25 24 24 24 24 23 23 22 21 21 21 20 20 20 20 19 19 19 18 18 18
27 27 27 28 28 28 28 28 28 28 28 28 27 27 27 27 27 27 27 27 26 26 26 25 25 25 25 25 24 24 23 23 23 22 22 22 22 21 21 20 20 19 19
28 28 29 29 30 30 30 30 30 29 29 29 29 28 28 27 27 28 29 29 28 28 27 27 26 26 26 26 26 26 25 25 25 24 24 24 24 23 23 22 22 21 21
30 30 30 31 31 31 31 31 31 31 31 30 30 30 29 28 28 29 29 29 29 29 29 28 28 27 27 27 27 27 27 27 27 26 26 26 26 25 25 24 24 23 22
32 32 32 32 32 32 33 32 32 32 31 31 31 30 30 29 29 29 30 30 30 30 30 30 30 29 29 29 29 28 28 28 28 28 27 27 27 27 26 26 25 25 25
33 33 34 34 34 34 34 34 33 33 33 33 32 32 31 31 30 31 31 31 31 31 31 31 30 30 30 29 29 29 29 29 28 28 28 28 28 27 27 27 26 27 27
34 35 35 35 35 35 35 35 35 35 35 35 34 33 33 33 32 32 32 32 32 32 32 32 31 31 30 30 30 29 29 29 28 28 28 28 28 28 28 28 27 27 28
36 36 36 37 37 37 37 37 37 37 37 36 36 35 35 34 34 34 33 33 33 33 33 33 33 33 32 31 30 30 30 30 30 30 29 29 29 29 29 29 29 29 29
38 38 37 38 38 38 38 38 37 37 37 37 37 36 36 36 36 36 35 35 34 34 34 34 34 34 33 32 32 32 32 31 31 31 31 30 31 30 30 30 30 30 30
39 39 39 39 39 39 39 39 39 38 38 38 38 37 37 37 38 37 37 36 36 35 35 35 34 34 34 34 33 33 33 33 32 32 32 32 32 32 31 31 31 31 31
41 41 41 40 40 40 40 40 40 40 40 39 39 39 39 39 39 39 38 38 37 37 36 36 36 35 35 35 35 34 34 34 34 33 33 33 33 33 33 33 33 32 32
43 43 42 42 42 41 41 41 42 42 41 41 41 41 41 41 40 40 40 40 39 38 38 38 37 37 36 36 36 36 36 35 35 34 34 34 34 34 34 34 34 34 34
44 44 44 44 43 43 43 43 42 43 43 43 42 42 42 42 42 42 42 41 41 40 40 39 39 38 38 38 37 38 38 37 37 37 36 35 35 35 35 35 36 35 35
45 45 44 44 44 44 44 44 44 45 45 45 44 44 44 44 43 43 43 43 42 41 41 40 40 40 40 40 40 39 39 38 38 38 37 36 35 35 36 36 36 36 36
46 45 45 45 45 45 45 46 46 47 46 45 46 45 46 46 45 45 45 44 43 43 43 42 41 41 41 41 41 41 40 40 38 38 37 37 36 37 37 37 37 37 37
46 46 46 46 46 46 47 46 46 46 47 47 48 48 47 47 47 47 47 46 45 45 44 44 43 42 42 42 42 42 41 40 39 39 38 37 38 38 38 38 38 38 38
46 47 47 47 48 48 48 47 47 47 47 47 48 49 48 48 48 49 48 47 47 46 45 45 45 44 43 43 43 42 42 41 40 40 40 39 39 39 39 39 39 39 39
Wind_Direction
251 250 248 246 244 244 244 244 244 245 245 245 245 245 245 245 243 242 239 236 234 235 235 234 233 232 231 231 229 226 225 225 224 222 218 215 213 209 206 198 190 187 187
254 254 249 247 246 246 245 245 245 245 246 247 247 247 245 245 244 244 242 241 237 237 238 237 235 233 232 232 232 229 230 230 230 230 227 226 226 227 227 225 220 213 212
254 255 251 248 248 247 246 246 246 245 246 248 248 248 246 245 245 244 244 243 239 237 238 239 237 236 236 235 235 234 234 235 236 236 235 236 236 236 237 237 235 231 227
254 254 251 248 247 247 247 246 246 246 246 247 248 247 246 245 244 243 244 243 241 239 239 240 240 240 240 239 239 239 239 240 240 242 242 241 242 241 240 241 240 239 237
253 253 252 250 249 247 247 247 247 248 247 248 248 248 247 245 245 243 243 242 242 242 242 241 242 242 241 242 242 242 242 243 242 244 246 246 245 245 243 242 242 242 241
253 253 253 251 250 249 248 248 248 248 249 248 248 248 247 246 246 245 244 243 243 244 244 243 243 243 243 244 245 246 245 246 246 246 248 249 248 247 247 245 244 243 244
253 253 253 252 251 252 252 251 250 249 249 249 249 249 248 247 247 246 245 244 244 244 244 245 246 245 244 245 247 247 248 248 247 248 249 250 250 249 248 247 246 246 246
253 253 253 253 253 253 253 253 252 252 251 250 249 249 249 249 248 247 246 245 245 245 245 246 247 248 248 247 248 249 250 250 251 250 251 251 251 250 250 249 246 246 246
253 253 254 253 253 253 253 253 252 253 252 251 250 250 250 249 248 247 245 245 247 247 247 247 247 249 250 249 248 249 250 251 252 252 252 252 252 251 251 251 249 249 249
253 253 254 254 253 253 254 254 253 253 252 250 250 250 250 249 248 247 245 245 246 246 246 247 247 249 250 251 250 249 250 251 251 252 253 252 252 252 251 251 250 250 249
254 255 255 255 254 254 253 253 254 254 253 252 251 251 251 250 249 247 244 244 245 246 247 247 248 249 250 251 251 250 250 250 251 252 252 252 251 251 251 251 251 250 250
253 255 255 255 254 254 254 253 253 252 252 252 252 252 251 251 250 248 247 246 247 248 248 249 250 251 251 251 251 250 251 250 251 252 251 251 250 251 251 251 252 252 252
254 254 254 254 254 253 253 253 253 252 251 252 252 251 251 251 250 250 249 249 248 248 249 250 250 251 252 253 252 251 251 251 251 252 252 251 251 252 253 254 253 253 253
254 254 254 253 253 253 253 253 252 252 251 251 251 251 251 250 250 250 250 250 250 249 249 250 251 251 252 253 253 253 252 252 252 251 252 251 250 251 253 254 255 254 254
253 253 253 253 253 253 253 253 253 252 251 251 250 250 250 250 250 250 250 250 251 250 250 250 251 251 251 252 253 253 253 253 252 252 252 252 251 250 252 253 254 255 255
253 253 252 253 253 253 253 253 253 253 252 251 250 251 250 250 250 250 250 250 251 251 250 250 250 251 251 252 252 252 251 252 252 252 252 253 252 252 252 254 255 255 255
253 253 253 253 253 252 253 253 253 253 252 252 251 251 251 251 251 250 250 249 249 250 250 250 250 249 250 251 252 252 251 251 251 252 252 252 252 253 254 255 255 256 255
254 253 253 253 253 252 252 253 253 252 252 252 251 250 250 250 250 250 249 249 249 249 249 249 249 248 249 250 251 252 252 251 251 251 250 252 253 254 255 255 256 256 256
254 253 253 253 253 253 252 251 252 252 252 252 251 251 250 250 249 249 249 248 248 249 249 248 248 247 248 249 250 251 252 252 251 251 249 250 252 253 254 255 256 257 257
254 253 252 253 252 252 252 251 252 252 252 251 251 251 251 250 249 249 248 248 249 248 248 249 248 247 247 248 249 250 251 251 252 251 251 251 251 252 253 255 256 257 258
253 253 252 252 253 252 252 252 252 253 253 252 252 251 250 249 249 248 248 248 248 248 247 248 249 248 247 247 248 249 251 251 251 251 252 252 252 252 253 255 255 256 258
252 253 253 253 252 252 252 252 252 252 253 253 252 251 250 249 249 248 247 248 249 248 248 249 249 249 248 248 249 250 250 251 251 252 252 253 253 252 253 255 255 255 257
252 252 252 252 252 252 252 252 252 251 252 251 250 250 249 248 249 248 247 247 247 248 249 249 249 249 249 249 249 250 250 251 252 253 252 254 254 254 254 256 257 257 257
251 251 251 251 252 252 252 253 253 252 251 251 251 251 249 248 248 248 247 247 247 248 249 250 250 250 249 250 251 251 251 251 252 254 254 254 255 255 256 257 257 258 259
252 251 251 251 252 253 253 252 253 251 251 251 251 250 249 248 248 248 246 246 246 248 250 250 249 249 249 250 250 251 252 252 252 254 254 255 255 255 256 256 256 257 258
253 252 252 252 253 253 253 252 252 252 251 251 251 250 249 248 248 247 245 245 246 247 248 248 247 247 248 249 250 252 252 252 252 253 254 254 255 255 256 257 257 257 258
Height
5846 5846 5847 5847 5848 5849 5850 5850 5851 5852 5853 5854 5855 5855 5856 5857 5858 5858 5859 5860 5860 5861 5862 5862 5863 5864 5864 5865 5866 5866 5867 5867 5867 5868 5868 5868 5869 5869 5869 5869 5869 5869 5869
5843 5844 5844 5845 5846 5846 5847 5848 5849 5850 5851 5851 5852 5853 5854 5855 5856 5856 5857 5858 5859 5860 5860 5861 5862 5862 5863 5864 5864 5865 5865 5866 5866 5867 5867 5868 5868 5868 5868 5868 5869 5869 5869
5840 5840 5841 5842 5843 5844 5844 5845 5846 5847 5848 5849 5850 5851 5852 5852 5853 5854 5855 5856 5857 5858 5858 5859 5860 5861 5861 5862 5863 5864 5864 5865 5865 5866 5866 5867 5867 5867 5867 5868 5868 5868 5869
5836 5837 5838 5839 5840 5840 5841 5842 5843 5844 5845 5846 5847 5848 5849 5850 5851 5852 5852 5853 5855 5855 5856 5857 5858 5859 5860 5860 5861 5862 5863 5863 5864 5864 5865 5865 5865 5866 5866 5866 5867 5867 5867
5833 5834 5834 5835 5836 5837 5838 5839 5840 5841 5842 5843 5844 5845 5846 5847 5848 5849 5850 5851 5852 5853 5854 5855 5856 5856 5857 5858 5859 5860 5861 5861 5862 5862 5863 5863 5864 5864 5864 5865 5865 5866 5866
5829 5830 5831 5832 5833 5834 5835 5836 5837 5838 5839 5840 5841 5842 5843 5844 5845 5846 5847 5848 5849 5850 5851 5852 5853 5854 5855 5856 5857 5857 5858 5859 5859 5860 5861 5861 5862 5862 5862 5863 5863 5864 5864
5825 5826 5827 5827 5829 5830 5831 5832 5833 5834 5835 5836 5837 5838 5839 5840 5841 5842 5843 5844 5846 5847 5848 5849 5850 5851 5852 5853 5854 5855 5855 5856 5857 5857 5858 5859 5859 5860 5860 5860 5861 5862 5862
5821 5821 5822 5823 5824 5825 5827 5827 5829 5830 5831 5832 5833 5834 5835 5836 5837 5838 5839 5841 5842 5843 5844 5845 5847 5847 5848 5849 5850 5851 5852 5853 5854 5854 5855 5856 5856 5857 5857 5858 5858 5859 5860
5816 5817 5818 5818 5820 5821 5822 5823 5824 5825 5826 5827 5828 5829 5830 5831 5832 5833 5835 5836 5838 5839 5840 5841 5843 5844 5845 5845 5846 5847 5848 5849 5850 5851 5852 5852 5853 5854 5854 5855 5855 5856 5857
5811 5812 5813 5814 5815 5816 5816 5817 5818 5820 5821 5822 5823 5824 5825 5826 5827 5828 5830 5831 5833 5834 5836 5837 5838 5839 5840 5841 5842 5843 5844 5845 5846 5847 5848 5849 5849 5850 5851 5851 5852 5853 5854
5805 5806 5807 5808 5809 5810 5811 5812 5813 5814 5815 5816 5817 5818 5820 5821 5822 5823 5824 5826 5828 5829 5830 5832 5833 5834 5835 5836 5837 5838 5839 5840 5841 5842 5843 5844 5845 5846 5847 5847 5848 5849 5850
5799 5800 5801 5802 5802 5803 5804 5805 5807 5808 5809 5810 5811 5812 5814 5815 5816 5817 5819 5820 5822 5823 5825 5826 5828 5829 5830 5831 5832 5833 5834 5835 5836 5837 5838 5839 5840 5841 5842 5843 5844 5845 5846
5792 5793 5794 5795 5796 5797 5798 5799 5800 5801 5802 5804 5805 5806 5807 5809 5810 5811 5813 5814 5816 5817 5819 5820 5822 5823 5824 5825 5826 5828 5829 5830 5831 5832 5833 5834 5835 5837 5838 5839 5840 5840 5841
5785 5786 5786 5787 5788 5789 5790 5792 5793 5794 5796 5797 5798 5799 5801 5802 5804 5805 5807 5808 5810 5811 5813 5814 5816 5817 5818 5819 5820 5822 5823 5824 5825 5826 5827 5828 5830 5831 5832 5834 5834 5835 5836
5777 5778 5779 5780 5781 5782 5783 5784 5785 5787 5788 5789 5791 5792 5793 5795 5796 5798 5800 5801 5803 5805 5806 5808 5809 5811 5812 5813 5814 5815 5817 5818 5819 5821 5822 5823 5824 5826 5827 5828 5829 5830 5831
5768 5769 5770 5771 5772 5773 5775 5776 5777 5778 5780 5781 5783 5784 5786 5787 5789 5791 5792 5794 5796 5798 5799 5801 5802 5804 5805 5807 5808 5809 5810 5812 5813 5815 5816 5817 5818 5820 5821 5822 5823 5824 5825
5759 5760 5761 5762 5763 5765 5766 5767 5768 5770 5771 5772 5774 5776 5777 5779 5781 5783 5784 5786 5788 5790 5792 5794 5795 5797 5798 5800 5801 5803 5804 5806 5807 5808 5810 5811 5812 5814 5815 5816 5817 5818 5819
5749 5750 5752 5752 5754 5755 5756 5758 5759 5760 5762 5763 5765 5767 5768 5770 5772 5774 5776 5778 5780 5782 5784 5786 5788 5789 5791 5793 5794 5796 5797 5799 5800 5802 5803 5805 5806 5808 5809 5810 5811 5812 5813
5739 5740 5742 5742 5744 5745 5746 5748 5749 5750 5752 5754 5755 5757 5759 5761 5763 5765 5767 5770 5772 5774 5776 5778 5780 5781 5783 5785 5787 5788 5790 5791 5793 5795 5796 5798 5799 5801 5802 5803 5804 5805 5806
5728 5729 5731 5732 5733 5734 5736 5737 5739 5740 5742 5744 5746 5747 5749 5751 5753 5755 5758 5761 5763 5765 5767 5769 5772 5773 5775 5777 5778 5780 5782 5783 5785 5787 5789 5791 5792 5794 5795 5796 5797 5798 5799
5717 5718 5720 5720 5722 5723 5725 5726 5728 5730 5732 5734 5735 5737 5739 5741 5743 5745 5748 5751 5753 5756 5759 5761 5763 5765 5766 5768 5770 5772 5773 5775 5777 5779 5781 5783 5784 5786 5787 5789 5790 5791 5792
5704 5706 5708 5709 5710 5712 5714 5715 5717 5719 5721 5723 5725 5726 5728 5730 5732 5734 5738 5741 5743 5746 5749 5751 5754 5756 5757 5759 5761 5763 5765 5767 5769 5771 5773 5775 5776 5778 5779 5781 5782 5783 5784
5691 5693 5695 5697 5698 5700 5702 5703 5705 5707 5709 5711 5713 5715 5717 5719 5721 5724 5727 5730 5733 5736 5739 5741 5744 5746 5748 5750 5752 5754 5756 5758 5760 5762 5764 5766 5767 5769 5771 5772 5774 5775 5776
5678 5680 5682 5684 5686 5688 5689 5690 5693 5695 5696 5698 5701 5703 5705 5707 5710 5712 5716 5719 5722 5725 5728 5731 5734 5736 5738 5740 5742 5744 5747 5749 5751 5753 5755 5757 5758 5760 5762 5764 5765 5766 5767
5665 5667 5669 5671 5673 5675 5676 5678 5679 5681 5684 5686 5688 5690 5693 5695 5697 5700 5704 5708 5711 5714 5717 5720 5723 5725 5728 5730 5732 5734 5736 5739 5741 5743 5746 5748 5749 5751 5753 5754 5756 5757 5758
5651 5653 5655 5657 5659 5661 5663 5665 5666 5668 5670 5672 5674 5676 5679 5682 5685 5688 5691 5695 5699 5702 5706 5709 5712 5714 5717 5720 5722 5724 5726 5729 5731 5734 5736 5739 5740 5742 5743 5745 5746 5748 5749